Powrót do katalogu

ONEWEB-0395

AktywnyŁącznośćPO
NORAD 50475·PAYLOAD·🇬🇧 United Kingdom

Wystrzelony Dec 27, 2021 z Baikonur Cosmodrome

Loading…

Następne Przeloty (najbliższe 24 godziny)

TLE

ŚwieżeSource: CelesTrak SupGP

Epoka: Sep 14, 2026, 12:30 UTC

1 50475C 21132G   26257.52132361 -.00000934  00000+0 -26392-2 0  2573
2 50475  87.8977   3.3043 0001635 103.5580 306.6335 13.11420189    16

Śledź ONEWEB-0395 w czasie rzeczywistym z AllMySat

Download on the App Store